Wind_Speed
47 47 49 48 47 48 48 48 48 48 48 48 48 46 44 42 42 43 40 39 38 36 39 41 37 38 43 48 52 50 49 52 51 49 48 46 46 47 47 49 50 51 52 53 53 54 54 55 56 57 57 59 59 61 62 64 66 67 68 70 72 73 72 71 71 73 76 77 78 80 82 85 87 89 91 93 94 95 96 97 99 99 99 98 97 97
48 50 51 49 49 50 49 50 49 49 49 50 49 47 46 44 42 43 42 41 40 38 39 42 37 37 42 47 53 55 53 56 56 53 51 49 48 50 50 51 52 54 55 56 56 56 57 57 58 58 59 60 61 62 63 65 66 68 70 72 73 73 73 73 74 76 77 79 80 82 84 86 88 90 92 93 94 95 96 98 99 99 98 96 96 96
50 52 53 51 51 51 51 51 50 50 51 51 51 48 47 47 43 42 43 42 42 40 39 41 38 36 41 45 52 57 56 58 61 57 53 52 51 52 52 53 55 57 57 58 58 58 58 59 59 59 60 61 62 63 64 65 67 69 71 72 73 74 74 74 75 77 79 80 82 84 86 88 90 91 92 93 94 95 97 98 99 98 97 95 95 96
51 53 54 53 53 53 53 53 52 52 52 52 52 50 49 48 45 41 42 42 43 42 40 41 36 34 39 43 50 57 58 61 64 60 56 55 55 54 54 56 57 59 60 59 59 59 59 59 59 60 60 61 62 63 65 67 68 70 71 72 73 74 75 75 77 79 81 83 84 86 88 90 92 93 94 94 95 96 97 98 98 97 96 95 94 95
53 55 55 55 55 55 55 54 55 54 53 53 54 53 51 49 47 43 41 41 42 43 43 42 36 30 34 40 46 53 56 63 67 62 59 59 58 57 57 59 59 60 61 60 60 60 60 60 60 60 61 61 62 63 65 67 69 71 71 72 74 75 76 77 79 81 83 85 87 89 91 93 95 96 96 96 96 96 97 97 96 95 94 94 94 95
56 58 56 56 56 56 56 56 58 56 53 54 56 56 52 50 49 46 43 42 42 43 45 48 41 27 27 35 41 48 53 62 69 65 63 63 61 61 61 60 61 61 61 61 61 61 61 61 61 61 62 62 63 64 67 69 70 71 72 73 74 75 77 80 82 84 85 87 89 92 94 96 97 97 97 97 97 97 97 96 94 93 93 94 94 95
57 60 58 57 58 57 58 59 61 59 55 55 57 58 54 52 51 48 47 44 44 45 44 52 51 29 22 31 40 47 53 61 68 67 66 66 65 65 64 62 62 62 61 61 61 62 62 63 63 63 63 63 64 66 68 69 71 73 75 75 75 77 80 83 84 86 88 90 92 95 97 98 99 98 97 96 97 97 96 94 92 91 91 93 94 95
58 59 59 59 59 58 60 61 62 62 59 57 57 58 56 55 52 50 49 48 49 48 43 53 58 35 20 31 41 49 55 60 65 68 68 69 68 67 66 64 63 62 62 62 62 63 64 64 64 65 64 65 66 68 68 70 73 75 76 76 78 81 84 86 86 88 90 92 95 97 99 100 100 99 97 97 97 97 95 92 90 90 90 92 93 94
58 58 59 60 59 60 62 63 64 64 62 59 59 58 57 57 55 53 52 53 54 50 45 53 61 43 25 31 43 50 57 59 62 66 68 68 68 69 68 66 64 63 63 63 64 65 65 65 66 66 66 68 68 69 70 72 74 76 77 79 81 84 86 87 88 90 92 95 97 99 100 101 101 100 98 98 97 96 94 91 89 89 89 91 92 94
59 59 60 61 62 63 64 65 65 65 63 62 61 59 60 59 57 56 55 57 57 52 49 55 61 49 30 32 46 52 55 56 58 63 67 68 69 70 70 68 66 65 64 64 65 66 67 67 67 68 69 71 70 71 72 74 76 77 79 82 84 86 88 89 90 92 95 97 99 100 101 102 101 100 99 98 97 95 92 89 88 88 89 90 91 92
61 61 62 63 65 65 66 66 66 66 65 64 62 61 63 61 59 59 59 62 61 55 54 57 60 54 38 37 48 50 49 52 55 62 67 69 71 72 71 70 68 67 66 65 65 67 68 69 70 71 72 72 72 74 75 76 78 80 82 85 87 89 90 91 93 95 97 99 101 102 102 102 101 100 99 98 96 93 90 89 88 88 88 88 89 90
62 62 63 65 66 67 67 67 66 66 65 64 64 64 65 64 63 64 63 66 65 58 58 59 59 56 46 44 49 46 47 52 56 63 68 70 73 73 72 71 70 69 68 67 67 69 70 71 73 74 74 74 75 77 79 79 80 82 85 88 90 92 93 94 95 97 100 101 103 103 103 103 101 100 99 97 94 91 89 88 87 86 87 87 87 88
63 63 65 67 67 68 68 67 67 66 65 65 66 67 68 68 69 69 66 67 65 62 63 62 60 55 49 47 46 45 48 53 59 66 68 70 74 74 72 71 70 70 69 68 69 70 72 74 76 76 76 77 79 80 80 81 82 85 88 91 94 95 96 97 98 100 102 103 105 105 104 103 102 101 100 97 94 91 89 87 86 85 85 85 85 87
65 63 65 68 69 68 68 69 68 67 67 67 67 69 70 72 75 73 68 67 66 66 66 65 61 55 48 45 43 45 50 57 63 68 69 72 75 74 72 72 71 70 70 70 69 71 74 76 77 78 78 79 80 81 82 83 85 88 91 94 97 98 99 100 101 102 104 105 106 106 105 104 103 102 100 97 94 91 89 87 86 86 86 85 85 87
69 64 64 70 70 68 68 69 69 69 69 69 69 71 72 75 80 77 72 71 71 69 66 65 60 52 48 46 44 48 55 61 67 69 70 73 75 74 73 72 72 71 72 71 72 74 76 78 79 79 80 81 82 83 84 86 89 92 95 98 100 101 101 102 102 104 105 106 107 106 106 105 104 102 99 96 94 91 89 87 86 86 86 86 87 89
74 67 66 70 71 70 70 69 70 71 72 72 72 74 76 79 82 82 79 77 77 73 63 60 57 50 47 46 45 51 58 65 69 69 70 74 76 75 73 73 74 74 74 74 75 76 77 79 80 81 81 82 83 85 87 90 93 96 99 101 102 103 103 103 104 105 106 107 107 106 105 105 104 102 98 95 93 91 89 88 88 88 88 88 90 92
79 73 69 71 72 72 73 73 74 75 76 76 76 77 80 81 82 83 82 79 79 75 63 56 55 49 44 44 46 55 62 67 70 69 71 75 77 75 74 75 76 77 77 76 76 76 78 80 81 81 82 84 86 88 91 95 97 99 101 103 104 104 104 104 105 106 106 106 106 106 105 104 103 101 98 95 92 90 89 90 90 89 90 91 94 95
83 78 74 74 75 75 77 77 76 76 78 80 79 78 79 80 80 82 83 80 79 77 66 56 55 50 45 46 50 57 64 68 69 68 71 74 75 75 76 77 78 79 78 77 76 77 79 81 82 82 84 87 90 93 97 99 100 101 104 105 104 104 105 105 106 106 106 106 106 105 104 104 103 100 97 94 91 90 90 91 92 92 92 95 97 97
86 83 79 76 78 78 78 76 75 76 79 78 76 75 75 77 80 81 84 82 79 80 71 59 55 50 47 52 55 59 66 69 67 67 70 73 75 77 78 79 80 80 79 78 78 79 81 83 84 85 88 90 94 99 102 102 102 105 107 107 105 105 106 106 106 106 106 106 105 105 104 104 102 99 96 94 91 91 92 93 93 94 96 99 100 98
88 89 84 80 80 79 75 73 74 76 77 76 73 73 73 77 81 82 83 81 80 82 76 67 60 48 46 56 61 64 69 68 66 69 72 76 79 80 80 81 82 82 80 79 80 81 84 85 87 89 92 95 99 103 104 103 106 109 109 108 107 107 107 107 107 106 106 106 105 104 104 103 102 99 96 93 92 92 93 94 96 98 100 101 100 98
90 92 91 86 81 76 72 72 73 73 74 76 75 74 75 78 83 83 81 79 81 84 81 78 69 50 46 60 66 68 71 68 68 74 77 81 84 83 82 82 83 82 81 81 82 84 87 89 91 94 96 100 104 106 105 106 110 111 110 109 109 109 109 108 108 107 107 106 105 105 105 104 102 98 95 94 93 94 95 97 100 101 102 102 100 97
91 95 95 89 80 74 72 72 72 72 74 76 76 77 79 81 83 84 83 80 82 85 83 86 81 59 51 63 69 70 71 69 73 79 81 84 86 84 83 83 83 83 82 84 85 87 90 93 96 98 101 105 108 107 108 111 113 112 111 112 111 111 110 109 109 108 107 106 106 105 105 104 101 97 96 95 95 96 98 101 103 104 103 102 99 96
92 96 96 89 81 76 74 72 72 74 75 76 77 79 80 81 82 85 87 84 84 86 85 92 91 68 57 68 73 71 71 71 76 81 82 85 85 83 83 82 82 83 83 86 88 91 95 98 99 102 105 109 109 108 111 114 114 114 114 114 113 113 112 110 110 109 107 106 106 106 106 103 100 98 97 97 97 99 101 104 105 105 104 102 98 95
94 97 97 92 86 80 75 73 73 74 76 78 79 79 80 81 82 86 89 89 90 88 87 97 98 77 65 72 74 71 73 75 77 82 83 84 83 82 82 81 82 83 85 89 93 97 100 101 103 107 109 109 109 111 115 116 116 116 115 115 115 114 112 111 110 108 107 106 106 106 105 102 99 99 99 99 99 101 104 105 105 105 104 101 97 93
99 100 99 95 88 81 76 74 74 76 80 82 80 80 81 82 85 88 90 93 93 88 89 99 98 83 75 76 74 73 77 78 79 82 83 82 82 82 82 83 85 87 90 95 100 102 103 105 108 110 110 110 112 115 117 117 117 117 116 116 115 114 113 111 109 108 107 106 106 106 104 101 100 101 101 101 102 104 106 106 105 105 104 100 97 93
101 100 97 93 89 83 78 76 78 80 84 85 82 82 84 85 87 88 89 93 92 87 92 99 94 87 82 78 77 79 81 81 82 82 82 83 83 84 85 87 90 93 97 103 106 106 107 110 112 111 111 113 116 117 118 118 118 118 117 117 116 114 112 110 109 108 107 106 106 105 103 102 102 103 103 104 106 107 107 106 106 105 104 100 97 94
99 96 92 90 88 84 79 77 81 84 85 85 84 84 85 85 87 87 86 90 91 93 99 96 91 93 88 78 79 83 83 83 83 82 83 84 85 88 91 94 96 100 104 107 108 109 111 113 113 112 115 117 118 118 119 119 119 118 118 117 116 114 111 109 108 108 107 106 105 104 103 103 104 105 105 107 108 108 107 106 105 105 103 100 97 95
98 95 89 86 86 84 80 80 84 86 86 85 85 84 83 85 87 85 85 89 94 101 103 93 92 99 91 79 81 86 87 86 84 84 86 87 91 96 98 99 102 104 107 108 110 112 114 113 113 115 118 119 119 119 119 119 119 119 118 117 115 112 110 109 108 107 106 106 105 104 104 105 106 106 108 109 109 108 106 105 105 105 102 100 98 96
101 100 93 90 92 89 85 86 89 92 91 89 88 85 83 85 86 86 87 91 96 103 101 94 96 101 91 84 88 91 91 91 89 90 94 97 101 103 102 104 106 108 109 111 113 114 114 114 116 118 119 119 120 120 120 120 119 119 118 116 113 110 109 108 108 107 106 105 105 105 105 106 107 108 109 110 109 108 106 105 105 104 102 100 99 97
104 104 99 99 102 99 94 94 98 101 99 96 93 88 85 87 90 91 92 93 97 101 101 101 104 101 91 89 94 94 94 97 98 100 103 106 107 107 107 108 110 111 113 114 114 114 115 117 118 119 120 120 121 120 120 119 119 118 116 114 111 109 108 108 108 107 106 106 106 106 106 107 108 109 110 110 108 106 105 105 104 102 101 100 100 97
109 108 105 107 110 107 101 101 106 108 107 108 104 94 89 92 97 97 95 97 102 105 106 107 108 100 92 94 100 100 101 104 105 106 108 110 110 110 111 111 112 114 114 115 116 116 117 118 119 120 121 121 121 120 120 119 117 115 114 112 110 108 108 108 108 107 107 107 107 106 107 108 109 109 110 109 107 105 105 105 103 101 100 100 100 98
114 113 112 114 115 112 106 107 112 114 115 116 108 96 92 98 101 99 99 102 107 110 111 111 108 103 100 103 106 107 108 108 109 110 111 112 113 113 113 114 114 115 116 117 118 118 119 120 120 121 121 121 121 120 119 117 114 113 112 110 109 109 109 110 109 109 109 108 108 107 108 109 109 109 109 108 106 105 104 104 102 100 100 101 101 99
118 118 119 121 123 120 116 116 119 122 123 117 106 98 101 105 103 102 104 107 111 115 115 113 109 108 109 111 112 112 111 110 111 113 114 115 116 116 115 116 116 117 118 119 119 120 121 121 121 121 121 122 121 119 117 114 112 111 110 109 109 110 111 111 111 111 110 109 109 109 108 109 109 109 108 107 105 105 104 102 101 100 101 101 101 99
125 126 126 127 128 128 126 125 127 130 126 115 105 104 107 106 106 108 111 113 116 117 116 115 113 112 114 117 118 116 113 112 114 115 116 118 118 117 117 118 119 120 120 120 121 121 122 121 121 122 122 121 119 116 113 111 110 110 110 110 111 112 112 113 112 112 112 111 110 109 109 109 109 108 107 106 105 105 103 101 101 101 102 102 102 99
130 131 131 132 134 134 133 134 136 134 125 116 111 111 109 109 112 115 116 118 117 116 117 119 118 117 119 122 122 119 116 116 117 118 120 121 121 119 119 120 121 122 122 122 122 122 122 122 122 122 121 119 116 113 111 110 110 110 111 111 112 113 114 114 114 113 113 112 111 110 109 109 108 107 107 106 105 104 102 101 101 102 104 104 103 99
134 135 136 137 139 140 141 142 142 137 130 124 120 117 115 117 120 122 122 121 118 117 120 122 121 121 123 124 122 121 121 121 119 119 122 123 121 120 121 122 122 123 123 123 122 121 121 121 121 119 117 115 112 111 110 111 111 112 112 112 113 114 114 114 114 115 114 112 112 111 109 108 107 107 106 106 105 103 102 102 103 104 105 105 103 100
139 139 139 140 141 143 144 146 145 141 135 129 122 118 120 124 126 127 128 123 116 117 120 123 125 125 124 123 122 123 124 123 120 120 123 124 121 121 122 122 123 123 123 122 121 120 120 119 117 116 114 113 112 111 111 112 113 113 113 113 114 115 115 115 115 115 114 113 112 111 109 108 107 106 106 105 103 102 101 102 103 105 106 105 103 99
142 142 142 141 143 145 146 147 146 143 137 129 123 122 125 128 128 130 132 123 113 114 122 128 129 128 126 126 126 126 126 125 121 120 123 123 122 122 122 122 122 122 120 119 118 118 117 115 114 114 113 112 112 112 113 113 113 113 113 114 115 115 115 115 115 115 114 114 113 111 109 108 106 105 105 103 101 100 101 102 104 105 106 105 102 98
143 142 142 142 144 146 146 147 147 144 137 131 127 126 128 129 128 132 133 121 111 116 127 131 131 130 129 130 129 129 129 126 122 120 121 121 121 121 120 120 120 118 116 116 115 114 113 113 112 112 112 111 112 112 113 114 114 114 114 114 115 116 116 116 115 115 115 114 113 112 109 108 106 105 103 101 100 100 100 102 105 106 107 105 102 97
142 141 141 143 143 144 145 146 146 142 136 131 129 129 129 129 130 133 129 119 116 124 129 129 129 129 130 130 130 129 128 126 122 119 119 119 119 118 118 117 116 114 113 112 112 112 112 112 111 111 111 111 112 113 114 115 114 114 114 115 116 116 116 116 115 115 116 115 114 112 109 108 106 104 101 99 99 100 100 103 106 107 107 106 102 96
139 138 139 140 140 141 142 142 142 139 133 129 129 129 130 131 131 130 126 123 125 127 126 125 126 127 127 128 128 127 126 124 122 120 119 119 118 116 115 113 111 110 110 111 111 111 111 111 111 111 112 112 113 114 115 115 115 115 115 116 117 117 116 116 116 116 116 115 114 112 110 108 105 102 100 98 98 100 101 104 106 107 107 106 102 95
138 137 138 138 137 137 137 138 139 135 129 126 127 129 129 129 128 125 124 125 125 123 122 123 123 123 124 125 125 125 124 123 121 120 119 118 117 115 112 110 109 109 110 111 111 112 112 113 113 113 112 112 113 114 115 116 115 116 117 117 117 117 117 117 117 117 116 115 114 112 110 107 104 101 100 99 99 101 102 105 106 107 107 105 100 94
138 138 137 134 132 133 135 136 134 129 123 122 125 126 125 124 123 122 123 123 122 120 121 122 122 123 124 124 124 123 122 121 120 119 118 117 117 115 112 110 109 110 110 111 112 113 114 114 114 113 113 113 114 115 116 116 116 117 118 118 118 118 118 117 117 117 116 115 114 112 109 106 103 101 100 100 100 102 104 106 107 107 106 103 98 93
137 135 133 131 131 133 133 131 126 122 120 120 121 121 122 121 120 121 123 124 124 123 123 125 125 124 123 123 123 122 122 122 121 120 119 119 118 116 114 113 112 112 112 112 112 113 115 115 115 114 114 114 116 116 117 117 118 118 119 119 119 119 118 118 117 117 116 115 113 111 109 106 103 102 101 101 102 104 105 107 107 107 104 101 95 91
133 130 130 132 133 133 131 127 123 121 119 118 117 118 119 119 118 119 122 125 126 126 126 128 127 125 125 125 124 124 125 125 124 122 121 120 119 118 117 117 116 114 113 113 113 114 116 116 115 115 115 116 117 117 118 118 119 120 120 120 120 119 119 118 118 117 116 114 112 110 108 106 104 103 102 103 104 105 107 107 107 105 102 98 92 88
129 126 127 130 132 132 130 125 122 120 118 117 118 117 116 116 117 118 121 124 125 126 127 128 127 126 127 127 126 126 127 127 125 123 122 122 122 121 120 119 117 116 114 115 116 117 117 117 117 116 116 117 118 118 119 119 120 120 120 120 120 119 119 119 119 117 116 113 112 110 108 107 106 105 104 105 106 107 108 108 107 104 100 95 89 84
125 122 125 129 131 131 126 120 117 119 119 118 118 117 116 116 118 120 122 124 124 125 126 126 126 127 129 129 129 129 128 128 126 124 123 123 123 123 122 121 119 117 117 117 119 120 120 120 119 118 118 118 119 119 119 120 120 120 120 120 120 120 120 120 119 117 116 113 111 109 108 107 106 106 106 107 108 109 110 110 108 103 98 92 85 80
123 122 125 128 129 127 121 114 113 117 119 118 118 117 116 117 119 121 123 124 124 125 125 125 126 128 131 131 130 130 130 129 127 125 125 125 125 124 124 122 121 120 120 121 122 122 122 121 120 119 119 119 119 119 120 120 120 120 120 120 120 120 120 120 119 117 115 113 111 110 108 107 106 106 107 109 110 111 111 110 107 103 97 90 82 75
124 124 125 127 127 124 117 111 110 115 118 118 117 116 117 118 121 123 124 124 124 124 124 124 125 127 129 130 130 131 132 131 128 127 128 128 127 126 126 126 126 126 126 126 125 124 123 122 121 120 120 121 121 121 121 121 120 121 121 120 120 120 120 119 118 117 115 113 112 111 109 108 106 106 107 109 110 112 112 110 107 102 96 89 81 72
125 123 123 124 124 120 113 108 109 114 117 116 114 114 117 119 122 124 125 124 124 123 122 122 123 124 125 127 128 131 132 131 130 131 131 130 129 129 129 131 132 132 132 131 131 129 128 126 125 123 123 123 123 123 123 122 121 121 121 121 120 120 120 119 118 117 115 113 112 111 110 108 107 107 107 108 109 111 112 110 107 102 96 89 81 72
122 120 119 120 120 116 110 106 107 111 115 113 111 113 117 121 123 124 125 125 125 123 120 119 120 122 123 125 127 129 130 131 132 133 133 132 131 131 132 134 136 136 137 137 136 135 133 131 130 129 129 128 127 126 125 124 123 122 121 121 121 120 120 119 118 116 115 114 113 112 111 109 109 108 108 108 108 108 108 107 105 103 98 90 83 74
Wind_Direction
282 284 284 285 288 289 291 292 292 292 293 294 295 295 294 296 298 298 300 302 302 302 298 298 303 302 300 300 300 301 301 299 300 302 304 305 307 309 311 311 312 312 312 312 311 311 309 307 306 306 305 305 303 302 300 300 300 300 301 302 304 304 304 305 305 305 307 309 309 309 308 308 308 307 307 307 307 306 306 305 304 303 301 300 299 298
282 284 284 286 287 289 290 290 290 290 291 293 293 293 293 296 299 298 299 302 303 304 301 300 302 300 298 298 298 299 299 298 298 300 302 303 305 306 308 309 310 311 312 313 312 311 310 308 307 306 306 306 304 303 301 300 300 301 301 303 304 304 304 304 305 306 308 309 309 309 308 308 307 307 307 307 306 306 305 305 304 303 302 300 299 298
282 284 285 286 287 289 289 289 288 288 290 292 292 291 292 296 299 299 299 302 304 305 303 302 303 302 298 296 296 297 299 299 298 299 300 302 304 305 306 307 308 311 313 313 313 311 310 309 308 308 307 306 305 304 302 302 301 302 302 303 304 304 304 305 306 308 309 310 310 309 309 308 307 307 307 306 305 305 304 304 304 303 301 300 299 298
283 284 285 286 287 288 288 287 286 286 289 291 290 289 292 295 298 299 299 301 303 304 304 301 303 305 301 299 298 297 299 299 297 298 301 303 304 305 305 306 308 311 313 313 312 311 311 310 310 309 308 307 306 304 304 303 303 303 303 304 303 304 305 306 308 309 310 310 310 309 309 308 308 307 306 305 304 304 304 304 303 302 301 300 299 298
284 284 284 286 287 287 286 285 284 285 289 290 289 288 291 294 296 297 298 299 301 303 304 301 300 303 303 303 300 299 301 299 297 300 304 304 304 303 303 305 308 311 313 313 311 310 310 310 310 309 309 308 307 306 305 304 304 304 304 304 304 305 306 308 309 310 311 310 310 309 309 309 308 308 307 306 305 304 305 305 304 303 302 301 300 300
284 283 284 285 285 285 285 284 283 285 288 289 288 288 290 293 294 296 296 296 298 301 304 303 300 300 305 305 299 299 301 297 296 300 303 302 301 300 301 303 307 311 312 311 309 308 308 308 309 309 308 308 308 307 306 305 304 304 304 304 305 306 308 310 311 311 312 311 310 310 309 309 309 308 307 307 306 306 306 306 305 304 304 303 302 301
282 283 284 283 284 284 284 283 283 286 288 288 287 287 290 292 293 295 294 294 296 300 306 302 298 301 307 302 298 299 297 293 295 300 300 299 299 298 300 303 307 310 310 309 307 307 307 307 307 307 307 307 307 306 305 304 304 305 305 304 305 308 310 311 311 312 312 311 310 310 310 309 309 308 307 307 306 306 306 306 305 304 303 303 302 301
281 282 283 283 283 283 283 283 285 287 288 288 286 286 289 291 292 293 292 293 294 301 307 298 296 305 307 298 300 299 295 293 297 299 298 297 297 297 299 303 307 310 309 307 306 306 305 306 306 306 306 306 306 305 304 304 305 306 306 305 306 308 310 311 311 312 312 311 310 310 310 309 309 308 308 307 307 306 306 306 305 304 303 303 302 301
280 281 282 283 283 283 283 284 286 287 289 288 286 287 288 289 291 291 291 291 293 302 306 295 297 307 309 304 302 296 295 296 297 297 295 295 296 298 300 304 308 309 308 306 306 305 304 305 305 305 305 305 305 304 304 304 306 307 307 306 306 308 309 310 311 311 311 310 310 310 310 309 309 309 308 308 308 307 307 306 305 305 304 304 302 301
280 281 282 283 283 283 284 285 286 288 289 289 288 288 288 288 290 290 290 291 293 302 302 294 298 306 310 311 303 297 297 297 296 295 294 295 296 298 301 305 308 308 307 306 306 305 304 305 305 304 304 304 304 303 303 304 305 307 307 307 307 308 309 310 311 311 310 310 310 310 310 310 310 309 309 308 308 308 308 307 307 306 306 305 304 303
280 281 282 282 283 284 285 286 288 289 290 290 290 289 288 288 289 289 290 291 294 301 298 294 300 305 310 310 301 297 297 296 295 294 293 294 296 298 302 305 307 307 307 307 306 305 304 305 304 304 304 304 304 304 304 304 305 306 307 307 308 308 309 310 310 310 310 310 311 310 310 310 310 309 309 309 309 309 309 308 308 307 307 306 306 305
280 281 282 283 284 285 286 287 289 290 291 291 290 289 288 289 288 288 290 292 296 299 295 295 300 304 309 307 299 297 297 295 293 291 291 294 295 298 303 305 306 306 306 307 306 306 305 305 304 304 304 304 304 304 304 304 305 305 306 307 308 308 309 309 309 310 310 310 311 311 310 310 310 310 309 309 309 309 309 308 308 307 307 307 307 307
280 282 283 284 285 286 287 288 289 290 290 289 289 289 289 290 289 289 291 294 297 297 294 296 300 302 306 304 299 300 297 293 290 289 291 294 295 299 303 304 305 305 305 306 306 305 305 304 304 304 304 304 304 304 304 305 305 305 305 306 307 308 309 309 309 309 310 310 310 310 310 310 310 310 310 310 310 310 309 308 308 307 307 307 308 309
281 282 285 285 285 287 288 288 288 288 288 288 289 290 291 291 289 290 294 296 296 294 294 297 299 301 303 300 299 300 296 291 289 289 292 294 296 300 302 303 304 304 305 306 306 306 305 304 304 303 303 304 303 303 304 305 304 304 305 306 307 308 308 308 308 309 309 309 310 310 310 310 310 310 310 311 311 311 310 309 309 309 309 308 309 311
281 283 285 285 286 287 287 287 287 288 288 289 290 291 292 291 291 294 298 297 294 293 294 296 298 301 300 297 299 296 291 289 288 290 293 295 297 300 302 304 304 304 305 306 306 306 305 304 303 303 303 303 303 304 305 305 304 304 305 305 306 307 307 308 308 308 309 309 309 309 309 310 310 311 311 312 312 311 310 310 311 312 312 311 312 313
283 284 284 283 285 286 285 285 286 287 288 290 291 291 291 291 295 298 298 297 294 293 293 295 298 299 299 300 300 294 290 289 289 292 296 297 299 301 303 304 303 304 305 306 306 305 304 303 302 303 303 302 303 304 305 305 305 304 305 305 306 307 307 307 308 308 309 309 309 309 309 310 310 312 313 314 313 312 312 313 314 315 315 315 315 315
284 284 283 282 282 282 283 284 285 288 290 291 290 291 292 295 298 298 297 296 294 293 294 297 296 297 300 302 299 294 291 290 292 296 299 299 300 302 303 302 302 303 304 305 305 303 302 302 302 302 302 302 303 304 305 305 305 305 305 306 307 307 307 308 308 309 309 309 310 309 310 310 311 313 314 314 313 314 315 316 317 318 318 318 317 317
284 283 282 281 281 281 282 284 287 290 291 290 291 293 296 298 298 296 295 294 293 293 295 297 296 299 306 305 298 293 291 290 294 298 299 298 299 300 300 300 301 303 303 303 302 301 300 300 301 301 301 302 303 304 306 306 305 305 306 307 307 308 309 309 309 309 309 310 310 310 310 311 313 315 315 314 315 316 318 319 320 320 321 321 320 318
283 282 282 282 282 282 284 288 291 292 291 292 295 297 298 297 296 294 293 293 294 295 295 296 296 302 311 307 299 294 291 292 296 298 298 297 297 298 299 300 301 302 302 302 300 299 299 300 301 301 302 302 304 306 307 306 305 306 307 308 308 309 310 310 310 310 310 310 310 311 312 313 314 315 315 316 318 319 320 321 322 323 323 323 321 319
282 283 283 282 282 284 288 292 293 292 293 295 296 296 296 295 293 291 292 294 296 296 296 297 297 305 313 305 299 296 294 296 299 299 298 297 297 298 299 300 301 300 301 300 299 298 300 301 302 302 303 304 306 307 307 306 306 307 308 309 310 310 311 311 311 311 311 311 311 312 313 314 315 316 317 318 320 321 322 323 324 325 325 324 322 319
283 283 283 282 283 287 291 293 293 294 295 295 295 295 294 291 290 291 293 296 296 296 298 299 299 307 310 301 298 295 294 298 300 298 297 297 297 299 300 300 300 300 300 299 298 299 301 302 303 304 304 305 306 306 306 306 307 308 309 310 311 311 311 311 312 312 311 311 312 313 314 315 316 317 319 321 322 323 324 325 326 326 325 324 322 319
284 283 282 283 286 289 291 292 293 295 295 294 294 293 291 290 292 294 295 296 296 297 299 299 298 304 306 299 295 294 296 300 299 297 297 297 298 299 300 300 300 300 299 299 299 300 302 303 304 304 304 305 306 306 306 307 308 309 310 311 312 312 312 312 312 312 312 312 313 315 315 316 318 320 321 323 324 325 326 327 327 327 326 324 322 319
282 281 282 283 286 287 289 291 293 294 294 293 291 290 291 293 295 296 295 296 297 297 299 298 296 300 303 296 294 296 300 300 297 296 297 297 299 301 301 301 300 299 299 299 300 301 302 304 303 303 304 305 305 306 306 308 309 310 311 312 313 313 313 313 312 312 312 313 315 315 316 317 319 321 323 325 326 327 328 328 327 326 326 324 322 320
279 280 281 283 285 287 289 291 291 291 290 289 288 290 292 294 294 294 295 296 295 297 299 295 293 298 301 296 297 301 301 298 296 296 296 297 299 300 300 300 300 299 299 300 301 302 303 303 303 304 305 305 306 306 308 309 310 311 312 313 313 313 313 312 312 312 313 314 315 316 317 319 321 323 325 326 327 328 328 328 327 326 325 324 322 320
277 278 280 283 286 288 290 290 289 287 285 285 287 290 290 291 292 292 294 294 295 298 297 292 293 298 300 298 301 303 300 297 296 295 296 298 299 300 300 300 299 299 300 300 301 302 303 303 304 305 305 306 307 308 308 310 310 311 312 312 312 312 312 312 312 312 314 315 316 316 318 320 323 324 326 327 328 328 328 328 327 327 325 324 322 320
277 279 281 285 288 289 290 289 287 284 284 285 287 288 288 289 290 291 292 293 295 297 293 290 295 298 298 301 304 303 299 297 296 296 298 299 300 300 300 300 300 300 300 301 302 302 303 303 305 305 306 307 307 308 309 310 310 311 312 312 312 312 312 312 312 313 314 315 316 318 320 322 324 325 326 327 328 328 328 328 328 327 326 324 323 322
278 281 284 287 289 289 290 289 286 284 285 286 287 287 287 288 289 290 292 294 295 293 289 291 297 296 296 302 305 301 298 297 297 298 299 299 300 300 300 300 300 300 300 300 301 302 303 304 305 305 306 307 307 308 309 310 310 311 311 311 311 311 311 312 313 314 315 316 318 320 322 324 325 326 327 327 327 327 328 328 328 327 326 325 323 322
280 282 284 287 287 288 289 288 286 285 285 285 285 286 288 289 289 292 294 293 292 289 289 294 297 294 297 304 303 298 297 297 298 299 298 299 299 299 299 299 299 299 300 300 301 302 303 304 304 305 306 307 307 309 309 310 311 311 311 311 311 311 312 312 313 314 316 317 319 321 323 324 325 326 327 327 327 327 328 328 328 328 326 325 324 323
281 282 284 285 285 285 286 286 286 285 284 284 284 286 288 290 292 294 293 290 288 289 292 297 295 293 299 304 299 296 297 298 298 298 298 299 299 299 299 299 299 299 299 300 302 302 303 304 304 305 306 307 308 309 310 310 310 310 310 310 310 311 312 312 313 315 318 320 321 322 324 324 325 326 326 326 326 327 328 329 329 328 327 326 324 323
281 283 285 285 284 285 286 287 286 285 285 285 285 287 291 293 293 291 289 288 289 291 293 294 292 294 301 300 296 296 298 297 297 298 298 298 299 299 299 299 299 299 300 301 302 302 303 304 305 306 307 308 309 309 310 310 310 309 310 310 310 311 312 313 315 318 319 321 322 323 324 324 325 325 326 326 326 327 329 329 329 328 327 326 324 323
282 283 284 284 284 285 287 287 285 284 286 286 287 291 295 292 289 287 289 291 291 291 291 291 292 296 298 295 294 296 296 296 297 298 298 299 299 299 299 299 300 300 301 302 302 302 304 305 306 306 307 308 309 309 309 309 309 309 309 310 311 313 314 316 318 319 321 321 322 323 324 324 324 325 325 325 326 328 329 329 329 328 328 326 324 323
282 283 283 283 283 284 285 283 283 284 285 285 290 296 293 287 286 288 291 291 290 289 289 290 293 295 294 292 293 294 295 296 298 299 299 300 299 299 299 300 301 301 302 302 302 304 305 306 306 307 308 308 309 309 309 309 309 309 310 311 313 315 317 318 319 320 321 322 322 323 323 324 324 324 325 325 326 328 329 329 329 329 328 326 325 323
281 282 283 283 283 284 285 284 283 283 283 287 294 293 286 284 287 290 289 288 287 287 289 291 292 292 292 292 293 294 295 298 298 299 299 299 299 299 300 301 301 302 302 302 304 305 305 306 306 307 308 308 308 308 308 309 309 311 312 314 316 317 318 319 320 320 321 321 322 322 323 323 324 324 325 325 327 328 329 329 329 329 328 326 324 323
281 281 282 282 283 284 285 285 285 284 287 292 293 286 284 286 288 287 286 286 287 288 290 291 291 291 292 292 292 294 296 298 298 299 300 299 299 300 301 301 301 302 302 303 304 305 305 306 307 308 308 307 307 308 309 310 312 313 315 316 317 318 318 319 320 320 320 321 321 322 322 323 323 324 325 326 327 328 329 329 330 330 328 326 324 323
282 282 282 283 283 284 285 285 285 286 289 289 286 284 285 286 285 284 284 285 287 289 290 290 290 291 291 292 293 296 298 299 299 299 299 298 299 300 301 301 302 302 303 304 304 305 306 306 307 307 306 306 307 309 310 312 314 315 316 317 317 318 318 319 319 319 320 320 320 321 322 322 323 324 325 326 328 328 329 330 330 330 328 326 324 323
282 282 282 283 284 285 286 286 286 287 287 286 286 286 286 285 284 284 284 286 288 289 289 288 288 289 291 293 296 298 298 298 298 298 298 298 299 300 301 301 302 302 303 304 304 305 305 305 305 305 306 307 309 311 313 314 315 316 316 317 317 317 317 318 318 319 319 319 320 320 321 322 323 324 326 327 327 328 329 330 331 330 328 326 324 323
281 282 282 283 283 284 284 285 285 286 286 287 288 286 285 284 285 285 286 288 290 291 288 286 286 289 292 295 296 297 296 296 297 298 297 298 299 300 301 301 302 302 303 303 304 304 304 305 305 306 308 310 311 313 314 315 315 315 316 316 316 316 317 317 318 318 318 318 319 320 321 322 324 325 326 326 327 328 330 331 331 330 328 325 324 323
281 281 281 281 282 282 282 283 284 285 286 287 286 285 284 285 285 286 286 289 292 291 287 284 287 291 294 295 295 295 294 295 296 297 297 298 299 300 300 301 301 302 303 303 303 304 305 306 307 309 311 312 313 314 314 314 314 314 315 315 315 315 316 317 317 317 317 318 319 320 321 322 324 325 326 326 327 328 330 331 331 330 327 325 323 323
279 279 279 279 280 280 281 282 283 284 286 286 285 284 285 285 285 284 286 290 294 290 285 286 290 293 293 293 293 293 294 294 296 297 297 298 299 299 300 300 301 302 303 303 304 305 307 308 310 311 312 312 313 313 313 313 313 313 314 314 314 315 315 316 316 317 317 318 319 320 321 323 324 325 325 326 327 329 330 331 331 330 327 324 323 322
277 277 277 278 278 279 280 281 282 283 285 285 285 285 285 284 283 284 287 292 291 286 286 289 291 291 291 292 292 293 293 295 296 297 298 298 299 299 299 300 301 303 303 304 305 307 308 309 310 311 311 312 312 311 311 312 312 312 313 313 313 314 315 315 316 317 317 318 319 320 321 323 324 325 325 326 328 329 330 332 331 329 327 324 323 322
276 276 276 277 278 278 279 280 282 283 284 285 285 285 284 284 284 286 289 290 287 286 288 290 289 290 291 291 292 293 294 296 298 298 298 298 298 298 300 301 303 304 304 305 306 307 309 309 310 310 311 311 310 310 310 310 311 312 312 312 313 313 314 315 315 316 317 318 319 320 321 323 324 325 325 327 328 329 331 331 331 329 326 323 322 322
277 277 276 276 277 278 279 280 281 282 283 284 284 284 284 284 286 288 288 287 287 288 289 289 290 291 291 291 293 294 296 297 298 298 298 298 299 300 302 303 304 304 305 306 307 308 309 309 310 310 310 309 309 309 310 310 311 311 311 311 312 313 313 314 315 316 317 318 319 320 321 322 324 325 326 327 328 330 331 331 330 328 325 322 322 322
277 277 277 278 279 280 280 280 280 282 284 284 284 284 285 286 287 287 288 288 289 290 291 291 292 292 292 293 294 295 297 298 298 298 299 300 301 303 304 304 304 305 306 307 307 308 308 308 309 309 309 309 309 309 309 309 310 310 310 311 311 312 313 314 314 315 316 317 319 320 321 323 324 325 326 327 329 330 330 330 330 328 324 321 321 322
277 278 279 280 280 280 279 280 281 283 284 284 284 285 287 288 289 290 291 291 292 293 293 293 293 293 294 295 296 297 299 299 298 299 300 301 302 303 303 304 304 305 306 306 307 307 307 308 308 308 308 308 308 308 308 309 309 310 310 310 311 311 312 313 314 315 316 317 319 320 321 323 324 325 326 327 328 329 330 330 329 327 323 320 320 321
277 279 280 279 279 279 280 281 283 283 284 285 286 286 287 288 290 290 289 290 291 292 293 293 293 294 295 296 297 298 298 298 298 299 300 301 302 302 303 304 304 305 305 306 306 306 306 307 307 308 308 307 307 307 308 308 309 309 309 310 310 311 312 313 314 315 316 318 319 320 322 323 324 325 326 327 328 329 329 329 328 326 322 320 320 321
277 278 278 278 278 279 280 281 282 284 285 286 286 287 288 288 288 287 287 287 289 290 291 291 293 294 295 296 297 297 296 296 297 298 299 300 301 302 303 303 304 304 304 304 304 305 305 306 306 307 307 306 306 307 307 307 308 308 308 309 310 311 312 313 314 315 316 318 319 320 322 323 324 325 326 327 328 328 328 328 327 324 321 319 319 321
276 276 276 276 276 276 278 280 282 283 284 284 285 287 287 287 287 287 287 288 288 289 290 291 292 293 293 294 294 295 295 295 296 297 298 299 300 301 302 302 303 303 303 303 304 304 304 305 305 305 305 305 306 306 306 307 307 307 308 309 310 311 312 313 314 315 316 317 319 320 322 323 324 325 326 327 327 327 327 327 326 323 320 318 319 321
275 274 274 274 275 276 278 280 281 281 282 283 284 285 286 286 286 286 286 287 288 288 289 290 291 291 292 293 293 293 294 294 295 297 298 299 300 300 300 301 301 301 301 302 303 303 303 304 304 304 304 305 305 305 305 306 306 307 307 308 309 310 311 312 313 314 316 317 319 320 321 322 323 325 325 326 327 327 327 327 325 321 318 317 318 321
274 273 273 274 276 277 279 281 281 281 280 281 283 284 285 284 284 284 285 286 287 288 289 289 289 290 291 291 291 292 292 293 295 296 297 298 299 299 300 300 300 301 301 302 302 302 303 303 303 303 304 304 304 305 305 305 306 306 307 308 309 310 311 312 313 314 315 317 318 319 320 321 323 324 325 326 326 327 326 326 323 320 317 316 317 320
272 273 273 274 276 278 280 282 281 280 279 279 281 282 282 281 281 282 284 285 285 286 287 287 287 287 287 287 288 289 291 292 294 295 296 297 298 298 299 299 299 300 301 301 301 302 302 302 303 303 303 304 304 304 304 305 305 306 307 308 309 309 310 311 313 314 315 316 317 319 320 321 322 324 325 325 326 327 326 325 322 319 316 315 316 319
271 272 273 274 276 278 280 281 281 280 279 278 279 279 278 277 278 280 281 283 284 284 283 282 282 282 282 283 285 287 289 291 292 293 294 295 295 295 296 297 298 299 299 299 299 300 300 301 302 302 303 303 303 303 303 304 305 306 307 307 308 309 310 311 312 313 314 316 317 318 319 320 322 323 324 325 326 326 326 325 322 318 316 315 315 318
Height
10767 10767 10764 10765 10765 10763 10762 10761 10760 10760 10759 10757 10756 10754 10753 10753 10751 10749 10750 10750 10750 10750 10744 10741 10744 10741 10733 10725 10718 10720 10722 10717 10717 10718 10717 10717 10716 10714 10713 10711 10709 10707 10705 10703 10701 10698 10695 10691 10688 10686 10683 10680 10678 10675 10672 10669 10665 10663 10659 10656 10652 10649 10645 10642 10638 10634 10630 10625 10619 10614 10608 10602 10597 10591 10585 10579 10573 10566 10558 10551 10545 10538 10532 10525 10517 10510
10762 10760 10758 10759 10759 10757 10757 10755 10754 10754 10753 10752 10751 10750 10748 10748 10749 10745 10744 10745 10745 10746 10743 10738 10741 10738 10731 10724 10715 10712 10715 10710 10708 10711 10711 10711 10710 10708 10707 10705 10703 10701 10699 10697 10695 10691 10688 10685 10682 10680 10677 10674 10671 10668 10665 10662 10658 10655 10652 10648 10644 10640 10637 10634 10630 10626 10622 10617 10612 10606 10601 10595 10589 10583 10578 10571 10563 10556 10548 10540 10532 10525 10518 10511 10504 10496
10756 10753 10751 10752 10752 10751 10751 10749 10748 10749 10748 10747 10745 10745 10743 10742 10745 10743 10739 10740 10740 10741 10740 10736 10738 10737 10729 10723 10714 10706 10707 10703 10698 10702 10704 10704 10704 10702 10700 10699 10696 10694 10693 10691 10688 10685 10681 10679 10676 10673 10670 10667 10664 10661 10658 10654 10651 10647 10644 10640 10635 10632 10628 10625 10622 10618 10613 10609 10604 10598 10593 10588 10582 10576 10570 10563 10555 10548 10539 10530 10522 10514 10507 10499 10492 10484
10749 10747 10745 10745 10746 10745 10744 10743 10742 10743 10743 10742 10739 10739 10739 10737 10739 10740 10736 10735 10734 10734 10735 10733 10735 10735 10727 10721 10712 10703 10702 10695 10689 10693 10696 10696 10695 10694 10693 10691 10690 10688 10686 10684 10681 10678 10675 10672 10669 10667 10664 10660 10657 10654 10650 10646 10643 10639 10635 10631 10627 10623 10620 10617 10613 10609 10605 10600 10595 10590 10584 10579 10573 10567 10562 10555 10547 10539 10531 10521 10511 10503 10495 10487 10479 10471
10742 10739 10740 10739 10739 10739 10738 10736 10735 10737 10739 10736 10733 10732 10734 10733 10732 10734 10733 10731 10730 10728 10728 10726 10731 10735 10728 10721 10710 10701 10699 10687 10678 10685 10687 10686 10687 10686 10686 10684 10683 10683 10680 10678 10674 10671 10669 10665 10663 10660 10657 10653 10650 10646 10642 10638 10634 10631 10627 10623 10619 10616 10612 10609 10605 10600 10596 10591 10586 10580 10575 10569 10563 10556 10550 10544 10536 10527 10519 10509 10499 10489 10480 10472 10464 10456
10734 10731 10734 10734 10732 10732 10731 10729 10726 10731 10735 10732 10726 10724 10728 10728 10725 10727 10727 10727 10727 10725 10722 10716 10721 10733 10731 10723 10710 10701 10698 10683 10672 10679 10680 10678 10679 10678 10679 10678 10678 10678 10675 10672 10668 10664 10662 10659 10656 10653 10650 10646 10643 10639 10635 10630 10626 10623 10619 10615 10611 10607 10604 10600 10596 10591 10586 10581 10576 10571 10566 10560 10554 10547 10538 10531 10524 10515 10506 10496 10486 10476 10465 10456 10448 10439
10727 10724 10727 10727 10726 10726 10724 10721 10720 10723 10728 10727 10721 10717 10720 10721 10720 10721 10719 10721 10722 10722 10722 10709 10707 10727 10732 10722 10712 10701 10694 10682 10673 10675 10674 10671 10671 10670 10671 10673 10673 10672 10669 10665 10662 10658 10655 10652 10649 10646 10643 10639 10635 10632 10627 10623 10619 10615 10611 10607 10603 10599 10595 10591 10587 10582 10577 10572 10567 10561 10556 10550 10544 10539 10530 10522 10514 10505 10497 10487 10477 10467 10455 10445 10435 10426
10720 10719 10720 10719 10720 10719 10716 10714 10714 10715 10719 10721 10716 10712 10713 10712 10713 10715 10712 10714 10714 10717 10721 10704 10696 10719 10729 10720 10711 10697 10686 10681 10675 10670 10666 10663 10663 10662 10663 10666 10668 10666 10662 10659 10655 10652 10648 10645 10642 10639 10635 10632 10628 10624 10619 10615 10611 10607 10602 10598 10594 10590 10586 10582 10578 10573 10568 10562 10557 10552 10546 10540 10533 10528 10520 10512 10504 10495 10486 10476 10466 10456 10446 10434 10423 10413
10714 10715 10713 10712 10713 10711 10709 10708 10708 10708 10710 10713 10710 10707 10707 10705 10706 10707 10706 10706 10706 10712 10716 10700 10691 10709 10722 10717 10706 10692 10682 10679 10674 10665 10658 10656 10654 10653 10655 10659 10661 10659 10655 10652 10648 10645 10641 10638 10635 10631 10628 10624 10621 10616 10612 10608 10604 10599 10594 10590 10586 10582 10577 10573 10569 10564 10558 10553 10547 10542 10536 10529 10522 10515 10508 10500 10491 10482 10474 10464 10454 10444 10434 10423 10411 10400
10707 10709 10707 10706 10705 10703 10702 10702 10701 10701 10702 10703 10703 10702 10699 10698 10700 10699 10699 10698 10699 10708 10708 10696 10691 10700 10713 10713 10697 10686 10680 10674 10669 10660 10650 10648 10646 10645 10648 10651 10652 10650 10647 10644 10641 10637 10633 10631 10627 10623 10620 10616 10613 10608 10604 10601 10596 10591 10586 10581 10577 10573 10569 10564 10559 10554 10548 10542 10537 10531 10524 10518 10511 10504 10496 10487 10478 10469 10461 10452 10441 10431 10421 10410 10398 10387
10701 10703 10702 10699 10697 10697 10696 10695 10694 10694 10694 10694 10694 10693 10690 10691 10692 10691 10692 10690 10691 10701 10699 10690 10690 10693 10703 10705 10690 10682 10678 10669 10664 10654 10643 10640 10638 10638 10641 10644 10644 10642 10639 10637 10634 10630 10625 10623 10619 10615 10612 10608 10604 10600 10596 10592 10588 10583 10578 10572 10568 10564 10560 10555 10550 10544 10537 10531 10525 10519 10512 10506 10499 10492 10484 10476 10467 10457 10449 10439 10429 10418 10408 10397 10385 10375
10696 10696 10695 10693 10690 10689 10688 10688 10688 10687 10687 10686 10684 10683 10681 10682 10683 10683 10685 10681 10683 10692 10689 10685 10687 10689 10695 10694 10682 10678 10674 10665 10656 10646 10638 10635 10631 10632 10635 10636 10635 10633 10631 10629 10626 10622 10618 10614 10610 10606 10602 10599 10595 10591 10587 10584 10579 10574 10569 10563 10558 10555 10551 10545 10539 10532 10526 10519 10513 10506 10500 10493 10487 10480 10472 10465 10455 10446 10437 10428 10418 10407 10396 10385 10373 10362
10691 10691 10688 10686 10684 10682 10681 10681 10680 10680 10679 10678 10676 10673 10672 10672 10670 10674 10678 10675 10677 10681 10677 10679 10683 10685 10689 10684 10675 10673 10667 10657 10647 10638 10634 10631 10626 10628 10630 10628 10628 10625 10623 10622 10619 10615 10610 10605 10601 10597 10593 10590 10586 10581 10578 10575 10571 10565 10560 10554 10549 10544 10540 10534 10528 10521 10514 10507 10501 10495 10489 10482 10475 10468 10459 10451 10442 10433 10424 10415 10405 10395 10384 10375 10363 10352
10683 10687 10684 10676 10675 10676 10675 10672 10671 10672 10671 10670 10669 10664 10664 10661 10655 10661 10670 10669 10671 10672 10669 10671 10675 10680 10682 10676 10672 10668 10659 10648 10638 10631 10629 10625 10622 10623 10623 10621 10620 10618 10615 10614 10612 10607 10602 10596 10592 10588 10584 10581 10576 10573 10570 10566 10561 10556 10550 10544 10539 10534 10530 10523 10516 10509 10502 10495 10489 10483 10477 10470 10464 10455 10446 10436 10427 10418 10408 10399 10390 10379 10369 10360 10351 10340
10672 10683 10682 10668 10666 10669 10667 10664 10662 10662 10662 10662 10661 10657 10656 10652 10643 10647 10658 10658 10658 10662 10665 10665 10667 10672 10673 10670 10668 10662 10650 10639 10629 10626 10625 10620 10616 10616 10616 10614 10611 10609 10607 10606 10604 10599 10593 10587 10582 10579 10576 10571 10567 10564 10561 10557 10551 10545 10539 10534 10529 10524 10519 10512 10505 10498 10491 10484 10477 10471 10464 10458 10451 10442 10433 10422 10412 10403 10393 10383 10374 10363 10353 10344 10335 10325
10660 10675 10677 10664 10661 10661 10657 10657 10655 10653 10654 10655 10654 10650 10647 10644 10638 10636 10642 10644 10640 10646 10659 10661 10659 10665 10665 10663 10662 10651 10641 10631 10621 10621 10620 10612 10609 10608 10608 10606 10602 10601 10599 10597 10595 10589 10584 10579 10574 10571 10567 10562 10558 10555 10551 10546 10541 10534 10528 10523 10518 10513 10507 10501 10494 10486 10479 10472 10465 10458 10451 10444 10437 10427 10418 10408 10397 10387 10376 10366 10357 10348 10337 10327 10317 10308
10648 10661 10666 10659 10656 10654 10650 10650 10650 10648 10648 10647 10646 10643 10638 10636 10634 10627 10625 10629 10626 10629 10647 10655 10652 10658 10662 10658 10653 10642 10631 10621 10615 10617 10614 10605 10601 10600 10599 10597 10594 10592 10591 10589 10586 10580 10575 10570 10566 10563 10558 10554 10550 10545 10541 10536 10529 10523 10517 10512 10506 10501 10495 10488 10481 10473 10466 10460 10452 10445 10438 10430 10422 10413 10403 10394 10383 10372 10361 10350 10341 10332 10322 10311 10300 10291
10633 10643 10652 10651 10647 10647 10645 10644 10646 10647 10642 10638 10638 10637 10633 10629 10625 10618 10611 10615 10615 10615 10632 10646 10644 10650 10656 10650 10643 10635 10623 10614 10613 10614 10608 10600 10595 10594 10592 10589 10587 10585 10582 10581 10577 10571 10566 10561 10557 10554 10549 10545 10540 10535 10530 10524 10517 10511 10505 10500 10494 10488 10482 10475 10468 10461 10454 10448 10440 10433 10425 10416 10407 10398 10388 10378 10368 10358 10347 10337 10326 10317 10307 10296 10285 10275
10619 10623 10636 10642 10638 10637 10639 10640 10642 10641 10634 10631 10632 10630 10627 10620 10614 10609 10602 10603 10606 10602 10614 10632 10637 10644 10648 10637 10630 10625 10613 10608 10610 10608 10601 10594 10589 10587 10585 10581 10578 10576 10573 10571 10566 10560 10556 10552 10548 10544 10539 10534 10529 10523 10518 10511 10505 10499 10493 10488 10482 10475 10469 10462 10455 10448 10441 10434 10427 10419 10411 10402 10393 10383 10373 10363 10353 10343 10333 10322 10312 10302 10293 10282 10270 10260
10608 10606 10616 10628 10628 10629 10635 10637 10635 10631 10626 10624 10625 10624 10621 10613 10603 10600 10596 10597 10597 10589 10596 10611 10625 10642 10642 10625 10618 10612 10603 10602 10604 10599 10592 10585 10579 10578 10576 10573 10569 10565 10563 10559 10554 10548 10545 10541 10537 10533 10528 10523 10517 10511 10505 10499 10492 10487 10481 10475 10469 10462 10456 10449 10442 10435 10428 10420 10413 10405 10396 10388 10378 10369 10358 10348 10339 10329 10318 10308 10298 10289 10279 10268 10257 10246
10600 10595 10597 10610 10619 10625 10630 10630 10626 10624 10620 10615 10615 10614 10612 10603 10594 10591 10593 10594 10587 10579 10583 10588 10603 10635 10637 10615 10608 10602 10595 10599 10596 10587 10582 10574 10569 10568 10567 10564 10558 10554 10552 10547 10541 10537 10533 10530 10526 10521 10516 10510 10505 10499 10492 10486 10479 10474 10468 10461 10456 10449 10442 10435 10428 10421 10414 10406 10398 10391 10382 10373 10363 10353 10343 10334 10324 10315 10305 10294 10284 10275 10265 10254 10243 10233
10592 10583 10581 10593 10610 10619 10623 10623 10620 10618 10613 10608 10605 10604 10599 10592 10587 10582 10581 10586 10581 10573 10575 10569 10578 10619 10629 10605 10597 10594 10591 10594 10586 10575 10571 10564 10560 10560 10558 10554 10549 10544 10541 10534 10529 10526 10522 10519 10514 10509 10504 10498 10492 10486 10479 10473 10466 10460 10454 10448 10442 10435 10427 10420 10414 10406 10399 10391 10383 10376 10367 10358 10348 10338 10329 10320 10311 10301 10290 10281 10271 10261 10251 10241 10230 10219
10581 10570 10569 10583 10600 10610 10614 10617 10615 10610 10605 10599 10596 10594 10589 10585 10582 10573 10566 10573 10573 10569 10571 10555 10554 10599 10618 10593 10585 10588 10586 10584 10574 10563 10560 10554 10552 10552 10547 10544 10539 10534 10529 10523 10519 10515 10511 10508 10503 10496 10492 10486 10479 10473 10465 10459 10452 10446 10441 10434 10427 10420 10412 10406 10400 10392 10385 10377 10369 10361 10352 10343 10333 10324 10315 10306 10297 10287 10277 10268 10258 10247 10237 10227 10217 10207
10568 10560 10562 10573 10588 10600 10607 10610 10608 10602 10595 10588 10587 10587 10583 10580 10577 10567 10560 10561 10561 10566 10567 10541 10535 10578 10600 10581 10578 10581 10574 10570 10563 10553 10549 10547 10545 10542 10537 10534 10530 10523 10519 10513 10508 10504 10500 10496 10490 10484 10479 10473 10466 10459 10451 10445 10439 10433 10427 10420 10413 10406 10399 10393 10386 10378 10371 10363 10355 10346 10337 10329 10320 10311 10302 10294 10285 10275 10266 10256 10245 10233 10222 10212 10202 10193
10557 10554 10556 10563 10577 10590 10598 10599 10597 10591 10581 10577 10581 10582 10577 10574 10569 10562 10559 10550 10550 10563 10556 10526 10527 10562 10577 10568 10569 10570 10560 10555 10551 10543 10540 10539 10536 10532 10528 10524 10518 10513 10508 10502 10496 10493 10488 10482 10477 10471 10465 10459 10452 10445 10438 10432 10426 10420 10414 10407 10400 10392 10386 10379 10372 10364 10357 10350 10342 10333 10323 10315 10306 10298 10290 10281 10272 10263 10253 10243 10231 10219 10207 10197 10188 10179
10548 10548 10553 10559 10566 10577 10586 10588 10584 10577 10570 10568 10575 10574 10568 10567 10562 10557 10555 10544 10544 10551 10535 10518 10528 10546 10556 10560 10557 10551 10545 10540 10538 10534 10531 10528 10525 10521 10517 10512 10507 10502 10496 10489 10484 10480 10475 10469 10464 10458 10452 10445 10438 10431 10425 10419 10413 10407 10400 10393 10386 10379 10373 10366 10358 10350 10344 10337 10329 10320 10311 10302 10293 10285 10277 10269 10260 10251 10242 10231 10218 10206 10194 10182 10173 10165
10540 10544 10552 10557 10557 10563 10573 10575 10568 10562 10561 10561 10564 10564 10562 10560 10553 10551 10551 10543 10537 10525 10512 10523 10532 10523 10536 10557 10546 10530 10527 10525 10525 10525 10520 10517 10514 10508 10504 10500 10496 10491 10483 10476 10472 10467 10462 10456 10451 10445 10439 10432 10425 10418 10412 10406 10399 10393 10386 10380 10373 10367 10360 10352 10343 10337 10330 10323 10315 10307 10298 10290 10281 10274 10266 10258 10250 10240 10231 10219 10206 10193 10182 10170 10160 10152
10533 10538 10551 10555 10550 10551 10559 10560 10552 10547 10550 10552 10551 10554 10557 10551 10545 10546 10547 10540 10525 10500 10497 10526 10528 10503 10521 10548 10533 10514 10512 10511 10515 10514 10508 10507 10503 10495 10492 10488 10483 10477 10470 10464 10460 10455 10449 10443 10438 10433 10426 10418 10412 10406 10399 10392 10386 10379 10372 10366 10360 10353 10346 10338 10330 10323 10317 10310 10302 10294 10286 10278 10270 10263 10255 10247 10239 10229 10219 10208 10195 10182 10170 10158 10148 10140
10525 10530 10546 10547 10537 10541 10550 10547 10537 10531 10535 10539 10539 10546 10550 10544 10539 10539 10535 10529 10514 10492 10494 10515 10509 10495 10516 10529 10511 10501 10499 10496 10500 10501 10495 10493 10488 10482 10479 10474 10468 10462 10456 10452 10447 10441 10436 10430 10425 10419 10412 10405 10399 10392 10386 10379 10372 10366 10359 10352 10346 10340 10332 10323 10316 10310 10304 10297 10290 10282 10275 10267 10259 10252 10244 10236 10227 10218 10208 10196 10184 10171 10159 10147 10137 10129
10517 10521 10536 10532 10521 10530 10542 10539 10523 10513 10518 10524 10528 10538 10545 10536 10527 10524 10520 10516 10507 10494 10494 10497 10487 10494 10516 10508 10489 10490 10489 10480 10483 10486 10481 10476 10472 10468 10465 10459 10453 10447 10442 10438 10433 10427 10422 10417 10411 10405 10398 10391 10385 10378 10372 10366 10359 10352 10345 10338 10332 10325 10317 10309 10302 10297 10291 10285 10278 10271 10264 10256 10249 10241 10233 10225 10216 10207 10196 10185 10173 10162 10150 10137 10126 10118
10509 10511 10521 10517 10505 10516 10535 10528 10507 10501 10504 10505 10515 10538 10543 10522 10505 10506 10511 10508 10496 10486 10485 10480 10476 10493 10507 10491 10475 10480 10477 10468 10470 10471 10465 10461 10456 10452 10449 10444 10438 10433 10429 10424 10417 10412 10409 10403 10397 10391 10384 10378 10371 10365 10358 10352 10345 10338 10331 10324 10317 10310 10302 10295 10289 10284 10278 10272 10266 10260 10253 10246 10238 10231 10222 10214 10205 10195 10185 10174 10163 10152 10140 10127 10116 10107
10499 10497 10504 10501 10488 10501 10524 10512 10493 10493 10489 10486 10512 10538 10529 10501 10489 10496 10504 10497 10482 10471 10468 10469 10474 10483 10487 10476 10468 10468 10464 10460 10460 10457 10452 10447 10442 10436 10433 10429 10424 10419 10415 10408 10403 10399 10394 10389 10383 10376 10370 10364 10357 10351 10344 10338 10331 10324 10316 10309 10303 10296 10288 10282 10277 10271 10265 10260 10254 10248 10242 10235 10227 10220 10212 10203 10194 10184 10174 10164 10152 10141 10129 10117 10106 10097
10488 10484 10487 10483 10471 10481 10501 10495 10482 10479 10471 10483 10519 10525 10500 10487 10488 10489 10489 10481 10468 10458 10454 10459 10467 10468 10464 10459 10456 10454 10455 10454 10449 10444 10440 10434 10427 10422 10419 10415 10410 10405 10399 10393 10389 10385 10379 10374 10369 10362 10356 10350 10342 10336 10330 10324 10316 10308 10301 10295 10289 10282 10275 10269 10264 10259 10253 10248 10242 10237 10231 10224 10217 10209 10201 10192 10182 10173 10164 10153 10141 10130 10119 10108 10097 10087
10476 10473 10471 10467 10458 10459 10475 10476 10464 10456 10463 10490 10510 10496 10480 10485 10485 10474 10470 10466 10458 10451 10445 10443 10452 10454 10446 10439 10436 10437 10444 10445 10438 10432 10427 10417 10411 10409 10406 10401 10395 10388 10384 10379 10375 10370 10364 10359 10354 10348 10342 10335 10328 10322 10316 10308 10301 10294 10288 10283 10276 10269 10263 10257 10252 10247 10241 10236 10231 10226 10220 10213 10206 10199 10190 10181 10171 10162 10153 10142 10131 10119 10107 10097 10087 10077
10461 10458 10454 10452 10445 10440 10450 10454 10440 10441 10466 10485 10484 10477 10477 10478 10469 10457 10454 10455 10454 10450 10438 10427 10433 10440 10431 10420 10420 10422 10426 10429 10426 10421 10412 10400 10397 10397 10393 10387 10380 10373 10369 10365 10360 10355 10350 10345 10340 10334 10327 10320 10314 10308 10301 10293 10287 10280 10275 10270 10264 10257 10251 10246 10241 10235 10230 10225 10219 10215 10209 10202 10195 10188 10179 10170 10160 10151 10142 10131 10120 10109 10097 10086 10075 10067
10447 10443 10439 10437 10432 10425 10427 10427 10420 10427 10451 10463 10466 10472 10469 10457 10449 10442 10437 10444 10452 10448 10431 10413 10413 10421 10415 10408 10410 10411 10407 10408 10412 10409 10395 10384 10385 10384 10377 10372 10366 10359 10356 10351 10346 10342 10336 10331 10326 10319 10312 10306 10299 10293 10286 10279 10273 10268 10263 10258 10251 10246 10240 10235 10230 10224 10218 10214 10208 10203 10198 10192 10185 10177 10168 10159 10150 10141 10131 10120 10109 10099 10087 10077 10066 10056
10432 10427 10425 10422 10417 10412 10407 10405 10405 10410 10425 10445 10459 10460 10448 10434 10431 10424 10417 10431 10451 10446 10420 10398 10394 10402 10403 10401 10401 10399 10392 10390 10398 10396 10379 10369 10373 10370 10362 10358 10352 10346 10342 10338 10333 10329 10323 10317 10311 10303 10296 10291 10284 10279 10273 10267 10261 10256 10252 10246 10240 10234 10229 10224 10219 10213 10207 10202 10197 10192 10187 10181 10174 10167 10157 10149 10140 10131 10122 10110 10099 10089 10078 10068 10058 10047
10418 10414 10412 10405 10398 10397 10391 10386 10389 10392 10406 10433 10446 10440 10428 10418 10416 10408 10395 10413 10446 10441 10402 10378 10379 10387 10390 10388 10385 10383 10376 10374 10382 10382 10366 10357 10359 10355 10347 10344 10338 10332 10330 10325 10319 10315 10308 10301 10295 10288 10282 10277 10271 10266 10261 10255 10250 10245 10240 10235 10228 10223 10218 10213 10207 10202 10196 10191 10185 10180 10175 10169 10163 10156 10148 10139 10130 10121 10112 10101 10090 10080 10069 10057 10049 10040
10402 10398 10398 10388 10379 10382 10377 10370 10372 10376 10392 10417 10423 10415 10411 10405 10402 10393 10381 10401 10435 10422 10380 10367 10374 10375 10372 10369 10366 10364 10359 10356 10364 10366 10355 10346 10345 10339 10333 10329 10323 10319 10316 10311 10305 10300 10293 10287 10281 10275 10270 10266 10260 10255 10249 10243 10239 10235 10229 10224 10217 10212 10207 10201 10196 10190 10184 10179 10174 10168 10164 10158 10151 10145 10138 10130 10120 10111 10102 10093 10081 10071 10060 10047 10038 10031
10384 10381 10380 10371 10366 10370 10364 10355 10357 10364 10380 10398 10399 10392 10391 10388 10383 10376 10375 10397 10411 10389 10368 10369 10369 10362 10357 10352 10347 10347 10342 10339 10344 10347 10341 10334 10330 10325 10319 10314 10309 10305 10301 10295 10291 10286 10279 10275 10270 10264 10260 10255 10250 10244 10238 10232 10228 10223 10218 10212 10206 10201 10196 10190 10184 10179 10172 10167 10162 10156 10152 10147 10140 10134 10127 10120 10110 10100 10092 10083 10073 10062 10051 10038 10029 10021
10368 10365 10362 10357 10355 10355 10350 10345 10346 10352 10367 10381 10380 10374 10370 10365 10363 10366 10372 10379 10375 10362 10362 10364 10355 10350 10346 10337 10332 10332 10328 10325 10327 10327 10322 10317 10313 10309 10305 10300 10296 10291 10287 10282 10277 10273 10268 10263 10258 10254 10249 10244 10239 10233 10227 10221 10217 10212 10206 10200 10195 10190 10184 10178 10173 10167 10161 10155 10150 10144 10140 10135 10129 10123 10116 10108 10101 10091 10082 10073 10063 10053 10042 10030 10021 10014
10350 10347 10343 10343 10343 10342 10340 10336 10330 10337 10359 10369 10359 10353 10352 10349 10351 10358 10358 10353 10348 10347 10349 10344 10338 10337 10331 10322 10319 10317 10313 10313 10311 10306 10304 10300 10296 10294 10290 10286 10283 10278 10274 10270 10265 10260 10256 10251 10247 10243 10238 10233 10227 10221 10215 10210 10205 10200 10194 10188 10184 10178 10172 10167 10161 10155 10150 10144 10137 10132 10127 10122 10117 10111 10104 10097 10090 10081 10072 10064 10054 10044 10032 10020 10012 10005
10328 10325 10322 10329 10334 10330 10324 10319 10316 10327 10350 10354 10339 10334 10338 10338 10341 10343 10338 10333 10333 10332 10328 10323 10321 10318 10311 10307 10306 10302 10300 10299 10292 10287 10287 10283 10279 10279 10276 10272 10270 10266 10262 10258 10253 10249 10244 10239 10236 10232 10227 10221 10215 10209 10204 10199 10194 10188 10182 10176 10172 10166 10161 10156 10150 10144 10138 10132 10125 10120 10115 10110 10105 10099 10092 10085 10078 10070 10063 10056 10047 10036 10024 10012 10004 9997
10307 10312 10313 10317 10319 10309 10300 10304 10313 10323 10333 10333 10326 10324 10323 10323 10327 10327 10318 10312 10314 10313 10309 10304 10301 10298 10293 10292 10290 10288 10285 10281 10275 10272 10271 10268 10266 10265 10262 10259 10257 10253 10250 10246 10241 10237 10233 10228 10224 10220 10214 10210 10203 10197 10192 10188 10182 10176 10170 10165 10160 10155 10149 10144 10138 10132 10126 10120 10114 10108 10102 10097 10092 10087 10080 10073 10066 10060 10053 10046 10038 10029 10016 10004 9996 9990
10294 10307 10306 10297 10290 10287 10288 10293 10302 10310 10314 10315 10315 10314 10310 10310 10315 10315 10305 10299 10298 10297 10292 10287 10284 10282 10279 10276 10276 10275 10270 10264 10261 10260 10258 10255 10254 10251 10249 10247 10244 10240 10238 10233 10229 10225 10221 10216 10213 10209 10203 10198 10191 10185 10181 10176 10170 10165 10159 10153 10148 10143 10137 10132 10126 10120 10114 10109 10103 10097 10091 10085 10079 10074 10069 10062 10055 10049 10043 10036 10029 10021 10009 9998 9989 9983
10285 10295 10290 10278 10271 10272 10276 10282 10291 10298 10301 10300 10299 10302 10304 10303 10303 10301 10294 10290 10289 10284 10278 10274 10272 10270 10265 10263 10264 10262 10255 10250 10249 10247 10245 10243 10240 10238 10236 10234 10231 10228 10225 10221 10217 10213 10209 10206 10202 10197 10193 10186 10180 10175 10170 10164 10159 10153 10147 10142 10137 10131 10126 10120 10113 10108 10102 10097 10092 10086 10080 10074 10067 10061 10056 10049 10043 10036 10029 10024 10017 10010 10001 9991 9983 9976
10274 10278 10271 10264 10259 10256 10261 10277 10289 10290 10286 10286 10288 10292 10296 10293 10288 10285 10281 10278 10276 10271 10265 10263 10261 10256 10252 10251 10249 10246 10241 10238 10236 10235 10233 10231 10228 10226 10224 10221 10218 10216 10212 10209 10206 10201 10197 10195 10190 10186 10181 10175 10169 10164 10159 10153 10147 10142 10136 10131 10125 10120 10114 10108 10101 10096 10090 10086 10081 10075 10070 10064 10058 10051 10043 10036 10031 10024 10016 10009 10002 9995 9989 9983 9978 9972
10258 10260 10250 10245 10245 10245 10254 10272 10283 10278 10274 10278 10280 10280 10283 10282 10276 10271 10268 10265 10262 10258 10255 10253 10250 10243 10238 10236 10233 10229 10224 10223 10223 10222 10220 10219 10217 10215 10212 10209 10206 10203 10200 10197 10194 10190 10186 10183 10179 10174 10170 10163 10158 10153 10147 10141 10136 10130 10124 10119 10113 10109 10103 10096 10090 10085 10079 10074 10070 10064 10060 10055 10050 10043 10035 10026 10019 10012 10005 9998 9989 9980 9975 9972 9971 9968
10237 10236 10232 10233 10234 10235 10245 10263 10273 10267 10262 10267 10271 10272 10273 10271 10263 10257 10254 10252 10250 10247 10245 10243 10237 10230 10225 10220 10216 10213 10209 10209 10211 10210 10207 10206 10205 10201 10198 10195 10192 10189 10187 10185 10181 10178 10174 10170 10166 10162 10158 10152 10147 10141 10135 10130 10124 10118 10112 10107 10102 10097 10092 10085 10079 10073 10068 10063 10058 10053 10050 10046 10040 10035 10028 10019 10009 9999 9989 9983 9977 9969 9962 9958 9958 9961
10216 10216 10222 10226 10222 10223 10237 10255 10261 10252 10246 10254 10266 10268 10262 10255 10249 10244 10241 10239 10238 10238 10236 10233 10227 10221 10214 10208 10203 10200 10198 10199 10199 10197 10194 10193 10191 10187 10184 10181 10177 10175 10174 10171 10168 10165 10161 10157 10153 10150 10145 10140 10135 10128 10123 10118 10112 10106 10101 10095 10090 10085 10080 10074 10069 10063 10057 10053 10048 10043 10039 10035 10030 10026 10020 10013 10005 9993 9979 9966 9956 9950 9948 9945 9945 9948
10204 10208 10214 10213 10210 10217 10232 10244 10244 10237 10232 10242 10256 10258 10250 10241 10236 10232 10230 10228 10227 10227 10225 10222 10216 10208 10202 10198 10195 10191 10191 10190 10187 10183 10181 10179 10177 10175 10172 10169 10166 10164 10162 10159 10156 10152 10148 10145 10141 10137 10132 10127 10122 10116 10111 10106 10100 10094 10089 10084 10078 10073 10068 10063 10058 10052 10047 10042 10038 10033 10029 10024 10020 10015 10010 10005 9999 9991 9978 9962 9944 9931 9927 9928 9930 9935